Simultaneous Nadir Overpasses (SNOs) Predictions

Prediction of SNOs between NOAA-20 and AQUA Satellite Orbit:

Table of predicted SNOs for the next 14.0 days since TLE Epoch: 5/28/2022
Index Date (NOAA-20) Time (NOAA-20) Lat,Lon (NOAA-20) SZA (NOAA-20 ) Date (AQUA) Time (AQUA) Lat,Lon (AQUA) SZA (AQUA ) Distance(km) Time Diff (sec)
1 05/29/2022 00:00:45 78.04, 67.23 73.30 05/29/2022 00:01:03 78.04, 67.19 73.29 1.02 18
2 05/29/2022 00:51:21 -78.42,-123.39 107.25 05/29/2022 00:50:21 -78.43,-123.27 107.23 2.84 60
3 05/31/2022 15:26:57 -77.97, 15.29 106.96 05/31/2022 15:27:41 -77.96, 15.18 106.97 2.77 44
4 05/31/2022 16:17:28 78.49,-174.52 72.29 05/31/2022 16:16:54 78.49,-174.59 72.33 1.57 34
5 06/03/2022 06:53:16 77.54, -38.34 73.31 06/03/2022 06:54:24 77.54, -38.27 73.24 2.05 68
6 06/03/2022 07:43:42 -78.30, 132.84 107.76 06/03/2022 07:43:33 -78.30, 132.81 107.75 0.53 9
7 06/05/2022 23:09:57 78.04, 79.90 72.34 06/05/2022 23:10:12 78.04, 79.96 72.32 1.50 15
8 06/06/2022 00:00:26 -78.69,-109.07 108.61 06/05/2022 23:59:24 -78.69,-109.14 108.55 1.67 62
9 06/08/2022 14:36:11 -77.88, 27.54 107.67 06/08/2022 14:36:50 -77.89, 27.61 107.71 1.77 39



Historial Predications of SNOs between NOAA-20 and AQUA
